This is the latest recevied weather packets stored in our database for station/object GW1491. If no packets are shown the sender has not sent any weather packets the latest 10 day(s).
| Time | Temp. | Humidity | Pressure | Rain* | Wind** | Luminosity | Snow |
|---|---|---|---|---|---|---|---|
| 1777529177 | 8.89° C | 99% | 1012.5 hPa | 0 mm | - | - | - |
| 1777525575 | 10° C | 99% | 1012.5 hPa | 0 mm | - | - | - |
| 1777523807 | 10° C | 99% | 1012.5 hPa | 0 mm | - | - | - |
| 1777522339 | 10.56° C | 99% | 1012.8 hPa | 0 mm | - | - | - |
| 1777519854 | 10.56° C | 99% | 1012.5 hPa | 5.08 mm | - | - | - |
| 1777518740 | 11.11° C | 99% | 1012.5 hPa | 5.08 mm | - | - | - |
| 1777518380 | 11.11° C | 99% | 1012.5 hPa | 5.08 mm | - | - | - |
| 1777515869 | 11.11° C | 99% | 1012.8 hPa | 5.08 mm | - | - | - |
| 1777515498 | 11.11° C | 99% | 1012.5 hPa | 5.08 mm | - | - | - |
| 1777515131 | 11.11° C | 99% | 1012.5 hPa | 5.08 mm | - | - | - |
| 1777512973 | 12.22° C | 99% | 1011.8 hPa | 5.08 mm | - | - | - |
| 1777507957 | 13.89° C | 95% | 1010.4 hPa | 3.3 mm | - | - | - |
| 1777507230 | 13.89° C | 95% | 1010.4 hPa | 3.3 mm | - | - | - |
| 1777506139 | 14.44° C | 93% | 1010.4 hPa | 3.3 mm | - | - | - |
| 1777500023 | 14.44° C | 98% | 1009.4 hPa | 3.3 mm | - | - | - |
| 1777497889 | 14.44° C | 98% | 1009.1 hPa | 3.05 mm | - | - | - |
| 1777492106 | 16.11° C | 99% | 1008.1 hPa | 3.05 mm | - | - | - |
| 1777491380 | 16.11° C | 99% | 1008.1 hPa | 3.05 mm | - | - | - |
| 1777485267 | 16.11° C | 99% | 1008.4 hPa | 3.05 mm | - | - | - |
| 1777481668 | 16.11° C | 99% | 1009.1 hPa | 2.03 mm | - | - | - |
| 1777480578 | 16.67° C | 98% | 1009.4 hPa | 1.27 mm | - | - | - |
| 1777480229 | 16.67° C | 97% | 1009.4 hPa | 0.76 mm | - | - | - |
| 1777477711 | 17.78° C | 92% | 1009.8 hPa | 0 mm | - | - | - |
| 1777476262 | 17.78° C | 91% | 1009.8 hPa | 0 mm | - | - | - |
| 1777475927 | 17.78° C | 91% | 1009.8 hPa | 0 mm | - | - | - |
* Rain since midnight (hover to see other rain measurements)
** Current wind speed in m/s (hover to see current wind gust speed)